Showing default

HIMAWARI 1 (GMS 1), 10143

Orbit data source: Space-Track

HIMAWARI 1 (GMS 1), 10143 is a payload satellite owned by NASDA (JP) in GEO that was launched on Thu, 14 Jul 1977 UTC via a DELTA 2914 launch vehicle from the Air Force Eastern Test Range (AFETR). Payload-class satellites include a variety of spacecraft equipped with specific instruments for various scientific and technological missions. These include communications satellites like Starlink; space stations such as the ISS; scientific satellites like the Hubble; Earth observation satellites from companies like Planet Labs, Umbra, and HawkEye 360; GPS; miniature CubeSats for education and research; and military/defense satellites.

Loading next visibility...
Identifier
10143, 1977-065A
Orbit
GEO
Country
Flag of JPJP / JPN
Related business
Manufacturer
HSES/NEC
Mission
Non-operational spacecraft
Bus & Motor
HS-335, STAR 27
Mass
664 kg wet, 258 kg dry
Launch date (UTC)
1977-07-14 (48 years ago)
Launch vehicle
DELTA 2914
Launch site
Air Force Eastern Test Range (AFETR)
Object type
Payload
Rocket body
Debris
Shape & HBR
Unknown
Radar Cross Section
Large (>1 m²)

Expand to show TLE details & history
Last TLE update: 14 hours ago

TLE from 14 hours ago
0 HIMAWARI 1 (GMS 1)
1 10143U 77065A   25305.58469052  .00000083  00000-0  00000-0 0  9999
2 10143   7.0657 294.4064 0017910 246.7248 300.4053  0.99247983118967
Epoch: 2025-11-01T14:01Z
TLE epoch observation values (Epoch: 2025-11-01T14:01:57.260Z)
Latitude
-0.8709°
Longitude
-130.32844°
Altitude
36,037.557 km
Speed
3.067 km/s
True Right ascension
08h 05m 05s
True Declination
0° 52' 12"
Sunlit
Object was in daylight at epoch
Visualization orbit readout
Latitude
Unknown
Longitude
Unknown
Altitude
Unknown
Speed
Unknown
Apparent Right ascension
Unknown
Apparent Declination
Unknown
Sunlit
N/A
Visualization observer readout
Local Sidereal Time
00:08:26
Azimuth
Unknown
Elevation
Unknown
Doppler factor
Unknown
Orbital elements
Apogee altitude
36,153.145 km
Perigee altitude
36,001.071 km
Semi-major axis
42,455.245 km
Eccentricity
0.00179
Inclination
7.0657°
RAAN
294.4064°
Arg. of periapsis
246.7248°
True anomaly
300.22809°
Mean anomaly
300.4053°
Eccentric anomaly
300.31672°
Mean motion
0.24811 °/min
Orbital period
1,450.96 mins
BSTAR
0
Loading maneuver chart data...
Computing Atmospheric mass density...
Loading historical data...
Loading historical data...
Loading historical data...
Loading historical data...
Loading historical data...
Loading historical data...
Loading historical data...

Documentation

Showing up to 5 results
|